﻿測定場所 (Monitoring sites),日付 (Measurement date),時間 (Measurement time),線量率 最大値 (max) μGy/h,線量率 最小値 (min) μGy/h,線量率 平均値 (average) μGy/h,
江戸川 (Edogawa),2015-05-24,23:01～24:00,0.0691,0.0628,0.0661,
江戸川 (Edogawa),2015-05-24,22:01～23:00,0.0706,0.0629,0.0661,
江戸川 (Edogawa),2015-05-24,21:01～22:00,0.0712,0.0623,0.0663,
江戸川 (Edogawa),2015-05-24,20:01～21:00,0.0690,0.0627,0.0662,
江戸川 (Edogawa),2015-05-24,19:01～20:00,0.0701,0.0627,0.0663,
江戸川 (Edogawa),2015-05-24,18:01～19:00,0.0694,0.0633,0.0662,
江戸川 (Edogawa),2015-05-24,17:01～18:00,0.0691,0.0625,0.0657,
江戸川 (Edogawa),2015-05-24,16:01～17:00,0.0689,0.0617,0.0659,
江戸川 (Edogawa),2015-05-24,15:01～16:00,0.0695,0.0615,0.0656,
江戸川 (Edogawa),2015-05-24,14:01～15:00,0.0691,0.0631,0.0662,
江戸川 (Edogawa),2015-05-24,13:01～14:00,0.0696,0.0626,0.0660,
江戸川 (Edogawa),2015-05-24,12:01～13:00,0.0696,0.0616,0.0657,
江戸川 (Edogawa),2015-05-24,11:01～12:00,0.0697,0.0628,0.0659,
江戸川 (Edogawa),2015-05-24,10:01～11:00,0.0696,0.0624,0.0658,
江戸川 (Edogawa),2015-05-24,09:01～10:00,0.0693,0.0625,0.0657,
江戸川 (Edogawa),2015-05-24,08:01～09:00,0.0699,0.0617,0.0659,
江戸川 (Edogawa),2015-05-24,07:01～08:00,0.0691,0.0616,0.0662,
江戸川 (Edogawa),2015-05-24,06:01～07:00,0.0696,0.0625,0.0657,
江戸川 (Edogawa),2015-05-24,05:01～06:00,0.0696,0.0630,0.0660,
江戸川 (Edogawa),2015-05-24,04:01～05:00,0.0706,0.0632,0.0665,
江戸川 (Edogawa),2015-05-24,03:01～04:00,0.0685,0.0618,0.0659,
江戸川 (Edogawa),2015-05-24,02:01～03:00,0.0686,0.0626,0.0659,
江戸川 (Edogawa),2015-05-24,01:01～02:00,0.0690,0.0621,0.0658,
江戸川 (Edogawa),2015-05-24,00:01～01:00,0.0696,0.0622,0.0661,
江戸川 (Edogawa),2015-05-23,23:01～24:00,0.0695,0.0632,0.0657,
江戸川 (Edogawa),2015-05-23,22:01～23:00,0.0695,0.0588,0.0657,
江戸川 (Edogawa),2015-05-23,21:01～22:00,0.0693,0.0629,0.0660,
江戸川 (Edogawa),2015-05-23,20:01～21:00,0.0716,0.0630,0.0663,
江戸川 (Edogawa),2015-05-23,19:01～20:00,0.0694,0.0629,0.0658,
江戸川 (Edogawa),2015-05-23,18:01～19:00,0.0699,0.0628,0.0661,
江戸川 (Edogawa),2015-05-23,17:01～18:00,0.0693,0.0624,0.0659,
江戸川 (Edogawa),2015-05-23,16:01～17:00,0.0695,0.0625,0.0655,
江戸川 (Edogawa),2015-05-23,15:01～16:00,0.0704,0.0623,0.0660,
江戸川 (Edogawa),2015-05-23,14:01～15:00,0.0685,0.0623,0.0660,
江戸川 (Edogawa),2015-05-23,13:01～14:00,0.0699,0.0631,0.0663,
江戸川 (Edogawa),2015-05-23,12:01～13:00,0.0699,0.0614,0.0662,
江戸川 (Edogawa),2015-05-23,11:01～12:00,0.0700,0.0627,0.0661,
江戸川 (Edogawa),2015-05-23,10:01～11:00,0.0700,0.0635,0.0667,
江戸川 (Edogawa),2015-05-23,09:01～10:00,0.0707,0.0628,0.0668,
江戸川 (Edogawa),2015-05-23,08:01～09:00,0.0709,0.0640,0.0671,
江戸川 (Edogawa),2015-05-23,07:01～08:00,0.0713,0.0640,0.0666,
江戸川 (Edogawa),2015-05-23,06:01～07:00,0.0691,0.0627,0.0662,
江戸川 (Edogawa),2015-05-23,05:01～06:00,0.0716,0.0627,0.0660,
江戸川 (Edogawa),2015-05-23,04:01～05:00,0.0694,0.0610,0.0654,
江戸川 (Edogawa),2015-05-23,03:01～04:00,0.0690,0.0619,0.0654,
江戸川 (Edogawa),2015-05-23,02:01～03:00,0.0692,0.0607,0.0651,
江戸川 (Edogawa),2015-05-23,01:01～02:00,0.0685,0.0615,0.0653,
江戸川 (Edogawa),2015-05-23,00:01～01:00,0.0714,0.0618,0.0655,
江戸川 (Edogawa),2015-05-22,23:01～24:00,0.0694,0.0610,0.0652,
江戸川 (Edogawa),2015-05-22,22:01～23:00,0.0684,0.0619,0.0652,
江戸川 (Edogawa),2015-05-22,21:01～22:00,0.0702,0.0610,0.0651,
江戸川 (Edogawa),2015-05-22,20:01～21:00,0.0708,0.0619,0.0655,
江戸川 (Edogawa),2015-05-22,19:01～20:00,0.0689,0.0614,0.0654,
江戸川 (Edogawa),2015-05-22,18:01～19:00,0.0703,0.0615,0.0656,
江戸川 (Edogawa),2015-05-22,17:01～18:00,0.0706,0.0615,0.0651,
江戸川 (Edogawa),2015-05-22,16:01～17:00,0.0689,0.0620,0.0652,
江戸川 (Edogawa),2015-05-22,15:01～16:00,0.0689,0.0618,0.0654,
江戸川 (Edogawa),2015-05-22,14:01～15:00,0.0707,0.0624,0.0659,
江戸川 (Edogawa),2015-05-22,13:01～14:00,0.0683,0.0624,0.0649,
江戸川 (Edogawa),2015-05-22,12:01～13:00,0.0679,0.0604,0.0652,
江戸川 (Edogawa),2015-05-22,11:01～12:00,0.0684,0.0624,0.0656,
江戸川 (Edogawa),2015-05-22,10:01～11:00,0.0688,0.0603,0.0648,
江戸川 (Edogawa),2015-05-22,09:01～10:00,0.0677,0.0616,0.0648,
江戸川 (Edogawa),2015-05-22,08:01～09:00,0.0688,0.0607,0.0641,
江戸川 (Edogawa),2015-05-22,07:01～08:00,0.0685,0.0614,0.0647,
江戸川 (Edogawa),2015-05-22,06:01～07:00,0.0681,0.0618,0.0649,
江戸川 (Edogawa),2015-05-22,05:01～06:00,0.0687,0.0618,0.0644,
江戸川 (Edogawa),2015-05-22,04:01～05:00,0.0680,0.0604,0.0647,
江戸川 (Edogawa),2015-05-22,03:01～04:00,0.0698,0.0616,0.0647,
江戸川 (Edogawa),2015-05-22,02:01～03:00,0.0686,0.0616,0.0645,
江戸川 (Edogawa),2015-05-22,01:01～02:00,0.0678,0.0600,0.0646,
江戸川 (Edogawa),2015-05-22,00:01～01:00,0.0683,0.0599,0.0649,
江戸川 (Edogawa),2015-05-21,23:01～24:00,0.0680,0.0607,0.0644,
江戸川 (Edogawa),2015-05-21,22:01～23:00,0.0681,0.0600,0.0648,
江戸川 (Edogawa),2015-05-21,21:01～22:00,0.0694,0.0596,0.0645,
江戸川 (Edogawa),2015-05-21,20:01～21:00,0.0680,0.0620,0.0648,
江戸川 (Edogawa),2015-05-21,19:01～20:00,0.0683,0.0610,0.0647,
江戸川 (Edogawa),2015-05-21,18:01～19:00,0.0675,0.0607,0.0648,
江戸川 (Edogawa),2015-05-21,17:01～18:00,0.0685,0.0612,0.0646,
江戸川 (Edogawa),2015-05-21,16:01～17:00,0.0693,0.0606,0.0648,
江戸川 (Edogawa),2015-05-21,15:01～16:00,0.0679,0.0628,0.0651,
江戸川 (Edogawa),2015-05-21,14:01～15:00,0.0684,0.0616,0.0647,
江戸川 (Edogawa),2015-05-21,13:01～14:00,0.0682,0.0615,0.0643,
江戸川 (Edogawa),2015-05-21,12:01～13:00,0.0678,0.0615,0.0648,
江戸川 (Edogawa),2015-05-21,11:01～12:00,0.0677,0.0599,0.0643,
江戸川 (Edogawa),2015-05-21,10:01～11:00,0.0680,0.0614,0.0645,
江戸川 (Edogawa),2015-05-21,09:01～10:00,0.0677,0.0609,0.0641,
江戸川 (Edogawa),2015-05-21,08:01～09:00,0.0703,0.0616,0.0644,
江戸川 (Edogawa),2015-05-21,07:01～08:00,0.0717,0.0624,0.0665,
江戸川 (Edogawa),2015-05-21,06:01～07:00,0.0858,0.0664,0.0746,
江戸川 (Edogawa),2015-05-21,05:01～06:00,0.0906,0.0745,0.0832,
江戸川 (Edogawa),2015-05-21,04:01～05:00,0.0782,0.0678,0.0720,
江戸川 (Edogawa),2015-05-21,03:01～04:00,0.0817,0.0685,0.0739,
江戸川 (Edogawa),2015-05-21,02:01～03:00,0.0805,0.0661,0.0721,
江戸川 (Edogawa),2015-05-21,01:01～02:00,0.0766,0.0662,0.0708,
江戸川 (Edogawa),2015-05-21,00:01～01:00,0.0828,0.0662,0.0731,
江戸川 (Edogawa),2015-05-20,23:01～24:00,0.0697,0.0631,0.0662,
江戸川 (Edogawa),2015-05-20,22:01～23:00,0.0684,0.0621,0.0653,
江戸川 (Edogawa),2015-05-20,21:01～22:00,0.0675,0.0623,0.0655,
江戸川 (Edogawa),2015-05-20,20:01～21:00,0.0703,0.0624,0.0660,
江戸川 (Edogawa),2015-05-20,19:01～20:00,0.0701,0.0638,0.0663,
江戸川 (Edogawa),2015-05-20,18:01～19:00,0.0687,0.0618,0.0655,
江戸川 (Edogawa),2015-05-20,17:01～18:00,0.0697,0.0631,0.0659,
江戸川 (Edogawa),2015-05-20,16:01～17:00,0.0681,0.0617,0.0655,
江戸川 (Edogawa),2015-05-20,15:01～16:00,0.0689,0.0616,0.0651,
江戸川 (Edogawa),2015-05-20,14:01～15:00,0.0699,0.0618,0.0654,
江戸川 (Edogawa),2015-05-20,13:01～14:00,0.0683,0.0627,0.0653,
江戸川 (Edogawa),2015-05-20,12:01～13:00,0.0686,0.0607,0.0655,
江戸川 (Edogawa),2015-05-20,11:01～12:00,0.0682,0.0629,0.0651,
江戸川 (Edogawa),2015-05-20,10:01～11:00,0.0686,0.0621,0.0650,
江戸川 (Edogawa),2015-05-20,09:01～10:00,0.0686,0.0621,0.0654,
江戸川 (Edogawa),2015-05-20,08:01～09:00,0.0685,0.0608,0.0650,
江戸川 (Edogawa),2015-05-20,07:01～08:00,0.0702,0.0619,0.0647,
江戸川 (Edogawa),2015-05-20,06:01～07:00,0.0680,0.0609,0.0650,
江戸川 (Edogawa),2015-05-20,05:01～06:00,0.0680,0.0616,0.0646,
江戸川 (Edogawa),2015-05-20,04:01～05:00,0.0680,0.0596,0.0644,
江戸川 (Edogawa),2015-05-20,03:01～04:00,0.0677,0.0618,0.0643,
江戸川 (Edogawa),2015-05-20,02:01～03:00,0.0686,0.0609,0.0644,
江戸川 (Edogawa),2015-05-20,01:01～02:00,0.0666,0.0608,0.0639,
江戸川 (Edogawa),2015-05-20,00:01～01:00,0.0694,0.0604,0.0643,
江戸川 (Edogawa),2015-05-19,23:01～24:00,0.0693,0.0609,0.0643,
江戸川 (Edogawa),2015-05-19,22:01～23:00,0.0686,0.0618,0.0647,
江戸川 (Edogawa),2015-05-19,21:01～22:00,0.0676,0.0612,0.0647,
江戸川 (Edogawa),2015-05-19,20:01～21:00,0.0674,0.0617,0.0644,
江戸川 (Edogawa),2015-05-19,19:01～20:00,0.0684,0.0614,0.0649,
江戸川 (Edogawa),2015-05-19,18:01～19:00,0.0689,0.0615,0.0644,
江戸川 (Edogawa),2015-05-19,17:01～18:00,0.0689,0.0611,0.0644,
江戸川 (Edogawa),2015-05-19,16:01～17:00,0.0677,0.0613,0.0641,
江戸川 (Edogawa),2015-05-19,15:01～16:00,0.0672,0.0613,0.0642,
江戸川 (Edogawa),2015-05-19,14:01～15:00,0.0699,0.0604,0.0646,
江戸川 (Edogawa),2015-05-19,13:01～14:00,0.0677,0.0598,0.0639,
江戸川 (Edogawa),2015-05-19,12:01～13:00,0.0681,0.0605,0.0641,
江戸川 (Edogawa),2015-05-19,11:01～12:00,0.0697,0.0606,0.0653,
江戸川 (Edogawa),2015-05-19,10:01～11:00,0.0728,0.0630,0.0681,
江戸川 (Edogawa),2015-05-19,09:01～10:00,0.0831,0.0676,0.0752,
江戸川 (Edogawa),2015-05-19,08:01～09:00,0.0837,0.0624,0.0717,
江戸川 (Edogawa),2015-05-19,07:01～08:00,0.0703,0.0645,0.0674,
江戸川 (Edogawa),2015-05-19,06:01～07:00,0.0693,0.0607,0.0658,
江戸川 (Edogawa),2015-05-19,05:01～06:00,0.0688,0.0614,0.0654,
江戸川 (Edogawa),2015-05-19,04:01～05:00,0.0740,0.0655,0.0695,
江戸川 (Edogawa),2015-05-19,03:01～04:00,0.0773,0.0678,0.0719,
江戸川 (Edogawa),2015-05-19,02:01～03:00,0.0741,0.0628,0.0685,
江戸川 (Edogawa),2015-05-19,01:01～02:00,0.0715,0.0632,0.0680,
江戸川 (Edogawa),2015-05-19,00:01～01:00,0.0728,0.0635,0.0681,
江戸川 (Edogawa),2015-05-18,23:01～24:00,0.0747,0.0671,0.0709,
江戸川 (Edogawa),2015-05-18,22:01～23:00,0.0741,0.0636,0.0691,
江戸川 (Edogawa),2015-05-18,21:01～22:00,0.0718,0.0640,0.0678,
江戸川 (Edogawa),2015-05-18,20:01～21:00,0.0703,0.0628,0.0669,
江戸川 (Edogawa),2015-05-18,19:01～20:00,0.0686,0.0635,0.0661,
江戸川 (Edogawa),2015-05-18,18:01～19:00,0.0698,0.0622,0.0663,
江戸川 (Edogawa),2015-05-18,17:01～18:00,0.0690,0.0620,0.0657,
江戸川 (Edogawa),2015-05-18,16:01～17:00,0.0701,0.0623,0.0659,
江戸川 (Edogawa),2015-05-18,15:01～16:00,0.0724,0.0632,0.0665,
江戸川 (Edogawa),2015-05-18,14:01～15:00,0.0696,0.0630,0.0662,
江戸川 (Edogawa),2015-05-18,13:01～14:00,0.0689,0.0628,0.0662,
江戸川 (Edogawa),2015-05-18,12:01～13:00,0.0697,0.0627,0.0658,
江戸川 (Edogawa),2015-05-18,11:01～12:00,0.0706,0.0621,0.0661,
江戸川 (Edogawa),2015-05-18,10:01～11:00,0.0686,0.0610,0.0654,
江戸川 (Edogawa),2015-05-18,09:01～10:00,0.0700,0.0625,0.0655,
江戸川 (Edogawa),2015-05-18,08:01～09:00,0.0689,0.0626,0.0654,
江戸川 (Edogawa),2015-05-18,07:01～08:00,0.0694,0.0610,0.0657,
江戸川 (Edogawa),2015-05-18,06:01～07:00,0.0686,0.0616,0.0655,
江戸川 (Edogawa),2015-05-18,05:01～06:00,0.0691,0.0623,0.0658,
江戸川 (Edogawa),2015-05-18,04:01～05:00,0.0693,0.0607,0.0652,
江戸川 (Edogawa),2015-05-18,03:01～04:00,0.0689,0.0613,0.0656,
江戸川 (Edogawa),2015-05-18,02:01～03:00,0.0699,0.0624,0.0655,
江戸川 (Edogawa),2015-05-18,01:01～02:00,0.0705,0.0621,0.0658,
江戸川 (Edogawa),2015-05-18,00:01～01:00,0.0688,0.0615,0.0656,
